Flight Track Log - Related Links

Times and Time Zones

All times are in EDT time to prevent confusion due to time zone crossing. See the SWA1718 flight status page for this flight to view local times or setup timezone preferences in your user account.

Time Position Orientation Groundspeed Altitude Reporting Facility
EDT Latitude Longitude Course Direction KTS MPH feet Rate Location/Type
03:20PM 32.8500 -96.8333 140° Southeast 106 122 1,200  Level Dallas / Fort Worth TRACON
03:21PM 32.8000 -96.7833 140° Southeast 228 262 3,500 2,950 Climbing Dallas / Fort Worth TRACON
03:22PM 32.7667 -96.7500 140° Southeast 232 267 7,100 2,250 Climbing Dallas / Fort Worth TRACON
03:23PM 32.6833 -96.7500 180° South 272 313 8,000 450 Climbing Dallas / Fort Worth TRACON
03:24PM 32.6167 -96.7667 192° South 282 325 8,000 209 Level Dallas / Fort Worth TRACON
03:24PM 32.6106 -96.8042 259° West 282 325 8,300 1,884 Climbing Fort Worth Center
03:25PM 32.6236 -96.9128 278° West 625 719 10,700 2,650 Climbing Fort Worth Center
03:26PM 32.6656 -97.0014 299° West 509 586 13,600 2,800 Climbing Fort Worth Center
03:27PM 32.7264 -97.1047 305° West 412 474 16,300 2,600 Climbing Fort Worth Center
03:28PM 32.7789 -97.1961 304° West 378 435 18,800 2,550 Climbing Fort Worth Center
03:29PM 32.8458 -97.3072 306° West 373 429 21,400 2,300 Climbing Fort Worth Center
03:30PM 32.9003 -97.4011 305° West 384 442 23,400 2,000 Climbing Fort Worth Center
03:31PM 32.9689 -97.5225 304° West 390 449 25,400 1,750 Climbing Fort Worth Center
03:32PM 33.0356 -97.6339 306° West 407 468 26,900 1,600 Climbing Fort Worth Center
03:33PM 33.0939 -97.7506 301° West 412 474 28,600 1,400 Climbing Fort Worth Center
03:34PM 33.1372 -97.8822 291° West 417 480 29,700 1,400 Climbing Fort Worth Center
03:35PM 33.1806 -98.0167 291° West 434 499 31,400 1,736 Climbing Fort Worth Center
03:36PM 33.2217 -98.1483 290° West 434 499 33,200 1,400 Climbing Fort Worth Center
03:37PM 33.2625 -98.2781 291° West 429 494 34,200 1,109 Climbing Fort Worth Center
03:38PM 33.3031 -98.4125 290° West 429 494 35,400 893 Climbing Fort Worth Center
03:39PM 33.3439 -98.5225 294° West 419 482 36,000 300 Climbing Fort Worth Center
03:40PM 33.4158 -98.6428 306° West 419 482 36,000  Level Fort Worth Center
03:41PM 33.4878 -98.7558 307° West 432 497 36,000  Level Fort Worth Center
03:42PM 33.5617 -98.8742 307° West 437 503 36,000  Level Fort Worth Center
03:43PM 33.6292 -98.9900 305° West 432 497 36,000  Level Fort Worth Center
03:44PM 33.7028 -99.1064 307° West 432 497 36,000  Level Fort Worth Center
03:45PM 33.7742 -99.2203 307° West 432 497 36,000  Level Fort Worth Center
03:46PM 33.8456 -99.3392 306° West 432 497 36,000  Level Fort Worth Center
03:47PM 33.9167 -99.4558 306° West 432 497 36,000  Level Fort Worth Center
03:48PM 33.9878 -99.5728 306° West 432 497 36,000  Level Fort Worth Center
03:49PM 34.0567 -99.6922 305° West 432 497 36,000  Level Fort Worth Center
03:50PM 34.1294 -99.8097 307° West 432 497 36,000  Level Fort Worth Center
03:51PM 34.2000 -99.9319 305° West 432 497 36,000 -152 Level Fort Worth Center
03:54PM 34.3636 -100.2011 306° West 438 504 35,500 -1,091 Descending Albuquerque Center
03:55PM 34.4344 -100.3192 306° West 435 501 32,400 -3,024 Descending Albuquerque Center
03:56PM 34.5056 -100.4394 306° West 438 504 29,300 -2,903 Descending Albuquerque Center
03:57PM 34.5892 -100.5814 306° West 434 499 26,400 -2,585 Descending Albuquerque Center
03:58PM 34.6544 -100.6939 305° West 416 479 24,000 -2,244 Descending Albuquerque Center
03:59PM 34.7169 -100.8008 305° West 396 456 21,800 -2,129 Descending Albuquerque Center
04:00PM 34.7775 -100.9025 306° West 380 437 19,600 -2,098 Descending Albuquerque Center
04:01PM 34.8369 -101.0008 306° West 366 421 17,500 -2,000 Descending Albuquerque Center
04:02PM 34.9006 -101.0908 311° West 355 409 15,500 -1,984 Descending Albuquerque Center
04:03PM 34.9617 -101.1786 310° West 345 397 13,400 -2,274 Descending Albuquerque Center
04:04PM 35.0344 -101.2825 311° West 338 389 10,800 -1,756 Descending Albuquerque Center
04:05PM 35.0903 -101.3639 310° West 323 372 9,800 -1,073 Descending Albuquerque Center
04:06PM 35.1389 -101.4342 310° West 296 341 8,600 -1,355 Descending Albuquerque Center
04:07PM 35.1872 -101.5050 310° West 281 323 7,000 -1,403 Descending Albuquerque Center
04:08PM 35.2347 -101.5736 310° West 273 314 5,700 -1,024 Descending Albuquerque Center
04:09PM 35.2692 -101.6425 301° West 233 268 4,900 -732 Descending Albuquerque Center
04:10PM 35.2478 -101.6783 234° Southwest 172 198 4,200 -581 Descending Albuquerque Center
04:11PM 35.2206 -101.7131 226° Southwest 154 177 3,700 -484 Descending Albuquerque Center

Login

Don't have an account? Register now (free) for customized features, flight alerts, and more!